軌道要素
Epoch 1999 Oct. 29.0 TT = JDT 2451480.5
T 1999 Oct. 25.22593 TT MPC
q 0.0490396 (2000.0) P Q
n 0.16180462 Peri. 21.80837 -0.19907331 -0.86989347
a 3.3353553 Node 82.04805 +0.81826669 -0.40095273
e 0.9852970 Incl. 27.10761 +0.53926751 +0.28726687
P 6.09
|